Location: Plymouth
(43.7490°N, 87.9770°W)
Time: 15:38:47
(UTC-05:00)

Daily predictions for brighter satellites

Satellite Brightness Start Highest point End
(mag) Time Altitude Azimuth Time Altitude Azimuth Time Altitude Azimuth
Okean 1 3.4 20:51:39 10° S 20:55:42 90° W 20:59:48 10° N
Centaur D-1A AC-31 3.3 20:53:04 10° WSW 20:57:09 15° SSW 20:59:39 10° SSE
Cosmos 1570 Rocket 4.1 20:52:04 10° SSW 20:57:24 89° ESE 21:02:49 10° NNE
USA 234 3.4 20:51:39 10° ENE 20:58:02 52° SE 21:04:24 10° SSW
NOSS 3-2 (A) 3.5 20:53:33 10° SW 20:59:27 88° NW 21:06:05 10° NE
Cosmos 304 Rocket 4.1 20:55:46 10° SSW 21:00:35 73° WNW 21:05:25 10° NNE
Lacrosse 5 rocket 2.9 20:58:51 10° NW 21:02:45 30° NNE 21:06:28 10° E
Timation 2 Rocket 3.9 20:57:39 10° SSW 21:03:33 68° ESE 21:09:36 10° NNE
NOSS 3-2 (C) 3.4 20:59:37 10° SSW 21:05:31 76° ESE 21:12:05 10° NE
Meteor 2-4 Rocket 4.2 21:00:48 10° SSE 21:05:46 38° E 21:10:53 10° NNE
Cosmos 1939 Rocket 4.2 21:02:10 10° S 21:06:05 42° W 21:10:03 10° NNW
Abrixas rocket 2.1 21:08:34 10° WSW 21:11:48 86° SSE 21:15:02 10° ENE
ERS-1 Rocket 3.9 21:07:52 10° SE 21:12:21 34° ENE 21:16:51 10° N
ISS -2.4 21:10:01 10° W 21:13:09 42° NNW 21:16:17 10° NE
Cosmos 1898 Rocket 3.7 21:11:33 10° NNW 21:16:53 79° WSW 21:22:11 10° SSE
Cosmos 2322 Rocket 2.2 21:15:04 10° NNW 21:20:43 88° WSW 21:26:18 10° SSE
ARGOS 3.3 21:15:35 10° SSE 21:20:54 63° ENE 21:26:16 10° N
Tiangong 2 1.0 21:18:38 10° WSW 21:21:46 64° S 21:24:53 10° E
Cosmos 1814 Rocket 4.1 21:17:13 10° S 21:22:22 62° ESE 21:27:38 10° NNE
Cosmos 1455 Rocket 3.4 21:19:15 10° N 21:23:29 48° ENE 21:27:13 13° SSE
H-2A R/B 2.3 21:19:42 11° SE 21:24:17 52° ENE 21:29:12 10° N
CENTAUR R/B 2.7 21:19:40 10° S 21:25:19 49° ESE 21:31:48 10° NE
Cosmos 1340 Rocket 3.2 21:25:28 10° SSE 21:29:19 44° E 21:33:14 10° NNE
SL-16 R/B 2.4 21:24:29 10° NNW 21:30:09 71° WSW 21:35:43 10° SSE
Cosmos 292 Rocket 4.0 21:26:40 10° S 21:31:15 49° ESE 21:35:50 10° NNE
Cosmos 990 Rocket 4.1 21:27:31 10° NNW 21:32:45 79° WSW 21:37:44 11° SSE
Shenzhou-11 Module 2.1 21:31:22 10° W 21:34:17 53° SSW 21:36:04 20° ESE
Cosmos 1975 Rocket 3.4 21:31:09 10° SSW 21:35:27 68° W 21:39:46 10° N
Cosmos 1242 Rocket 3.7 21:35:49 10° NNW 21:39:18 42° W 21:42:43 10° SSW
ATLAS 3B R/B 4.1 21:32:58 10° WSW 21:39:44 44° NW 21:46:16 10° NNE
Meteor 2-20 4.5 21:33:39 10° N 21:39:50 86° E 21:45:56 10° S
Meteor 1-13 Rocket 4.4 21:35:36 10° S 21:41:30 88° E 21:47:29 10° N
Aureole 2 Rocket 1.8 21:38:40 10° NNW 21:41:38 73° ENE 21:43:07 24° SSE
Meteor 2-20 Rocket 4.5 21:38:07 10° N 21:44:16 73° E 21:49:36 14° SSE
Helios 1A 3.7 21:41:57 18° SE 21:44:32 39° ENE 21:48:26 10° N
MetOp-B 4.2 21:44:58 13° SSE 21:49:45 87° WSW 21:55:09 10° NNW
Cosmos 1544 Rocket 3.6 21:46:25 10° N 21:50:52 86° W 21:54:28 16° S
Okean 2 4.4 21:50:55 22° SE 21:52:40 30° E 21:56:20 10° NNE
Meteor 1-15 Rocket 4.4 21:47:50 10° N 21:53:31 58° ENE 21:57:22 20° SSE
Cosmos 2084 4.3 21:50:10 10° SW 21:54:21 52° NW 21:58:21 10° NNE
Cosmos 2150 Rocket 4.2 21:49:19 10° NNW 21:54:42 73° WSW 21:58:51 17° S
CZ-4C R/B 3.6 21:50:18 10° NNW 21:57:01 45° NE 22:03:19 15° ESE
SL-08 RB Rocket 3.9 21:58:55 16° S 22:02:31 67° W 22:07:06 10° NNW
SJ 16-02 1.6 21:58:35 10° NNW 22:02:59 58° ENE 22:05:18 26° SE
Cosmos 1356 Rocket 4.3 22:03:27 26° SE 22:04:55 33° E 22:08:47 10° NNE
Resurs 01 Rocket 4.3 22:03:28 10° SW 22:05:55 15° W 22:08:22 10° WNW
Cosmos 1536 Rocket 3.5 22:05:19 16° S 22:08:48 84° E 22:13:17 10° N
Cosmos 2360 Rocket 2.2 22:04:48 10° NNW 22:10:28 81° WSW 22:14:04 23° SSE
Cosmos 540 Rocket 3.4 22:07:03 10° SSW 22:12:12 75° ESE 22:17:23 10° NNE
Helios 1B rocket 2.8 22:08:27 10° NNE 22:12:27 44° E 22:13:58 30° SSE
CZ-2C R/B 4.1 22:09:19 10° NE 22:13:29 21° E 22:14:46 19° ESE
Cosmos 2219 Rocket 3.2 22:09:19 10° N 22:14:26 35° NE 22:17:36 20° ESE
Landsat 7 3.9 22:14:40 28° SE 22:17:07 64° ENE 22:21:50 10° N
Cosmos 1092 Rocket 4.4 22:11:11 10° N 22:17:19 48° ENE 22:20:43 25° SE
Nadezhda 4 Rocket 4.0 22:13:40 10° N 22:20:00 73° E 22:23:53 25° SSE
IGS 5A 3.8 22:21:30 33° SE 22:23:01 52° ENE 22:27:05 10° N
Cosmos 841 Rocket 4.4 22:20:58 10° SW 22:26:03 50° WNW 22:31:12 10° N
SPOT 5 2.8 22:28:41 29° S 22:30:52 71° WSW 22:35:27 10° NNW
BREEZE-M R/B 4.1 22:30:16 10° WNW 22:33:01 27° NNW 22:35:12 10° NE
Terra 1.9 22:33:59 35° SE 22:35:52 65° ENE 22:40:36 10° N
Cosmos 372 Rocket 4.0 22:31:33 10° NNW 22:36:42 77° WSW 22:39:00 33° S
Cosmos 2333 Rocket 2.8 22:31:26 10° NNW 22:36:56 46° ENE 22:39:38 27° ESE
COSMOS 2428 2.7 22:34:22 10° NNW 22:40:05 75° ENE 22:42:36 34° SE
SL-16 R/B 4.5 22:37:22 10° N 22:40:31 15° NE 22:43:40 10° ENE
CARTOSAT-1 3.5 22:39:20 42° SSE 22:40:46 82° ENE 22:45:06 10° N
USA 234 4.0 22:34:41 10° NE 22:41:04 55° NNW 22:47:25 10° WSW
Lacrosse 5 rocket 1.7 22:38:01 10° NW 22:42:12 53° SW 22:43:05 43° S
CZ-2C R/B 3.4 22:41:20 34° SE 22:43:36 59° ENE 22:49:08 10° N
BREEZE M DEB (TANK) 3.9 22:40:53 10° WNW 22:46:53 26° WSW 22:47:56 23° SSW
Cosmos 2026 Rocket 4.3 22:40:55 10° N 22:46:55 50° ENE 22:49:21 33° SE
Abrixas rocket 3.7 22:45:25 10° WNW 22:48:26 36° N 22:51:14 11° ENE
Spot 1 3.9 22:47:20 45° S 22:48:30 78° WSW 22:52:36 10° NNW
ISS -1.1 22:47:41 10° NW 22:50:13 20° N 22:52:45 10° NE
ERS-1 Rocket 4.4 22:47:46 15° SSW 22:51:07 30° W 22:55:33 10° NW
Cosmos 1025 Rocket 3.2 22:51:30 34° SSW 22:53:20 71° W 22:57:44 10° N
Tiangong 2 2.1 22:55:16 10° W 22:57:22 37° W 22:57:22 37° W
Cosmos 1606 Rocket 3.6 22:54:00 10° N 22:58:26 64° E 22:59:18 51° SE
Cosmos 2297 Rocket 3.4 22:59:44 25° ESE 22:59:45 25° ESE 23:04:13 10° NE
SPOT 1/Viking Rocket 4.4 22:57:27 24° SSW 23:00:05 42° W 23:05:00 10° NNW
Spot 4 4.4 23:01:19 38° ESE 23:02:34 46° ENE 23:07:12 10° N
Cosmos 2227 Rocket 3.1 23:02:54 29° ESE 23:03:07 29° ESE 23:07:56 10° NE
H-2A R/B 4.1 23:00:35 10° SW 23:04:03 19° W 23:07:36 10° NW
Meteor 1-29 3.6 23:01:06 10° N 23:04:30 52° WNW 23:05:15 43° WSW
Cosmos 2237 Rocket 2.8 23:03:23 10° NNW 23:08:53 46° ENE 23:11:02 32° ESE
YAOGAN 11 4.2 23:09:09 51° SSW 23:10:12 72° WSW 23:14:44 10° NNW
Cosmos 1125 Rocket 4.3 23:07:12 10° NW 23:12:07 41° WSW 23:13:59 30° SSW
Cosmos 192 4.3 23:11:43 54° SSE 23:12:38 66° ESE 23:17:31 10° NNE
Cosmos 783 Rocket 4.5 23:10:53 35° SSW 23:13:11 86° WNW 23:18:32 10° NNE
Cosmos 1627 Rocket 4.4 23:07:20 10° N 23:13:32 88° E 23:15:50 41° S
Cosmos 2195 Rocket 4.4 23:08:31 10° N 23:14:42 87° W 23:17:05 40° S
Cosmos 1066 Rocket 4.4 23:12:11 28° SSW 23:15:00 63° WNW 23:20:25 10° N
CENTAUR R/B 4.0 23:10:22 10° WSW 23:16:09 39° NW 23:22:47 10° NNE
Cosmos 1428 Rocket 4.5 23:12:09 10° N 23:18:16 68° E 23:20:15 43° SSE
Cosmos 1634 Rocket 4.0 23:17:54 33° SSW 23:20:57 79° W 23:27:19 10° N
ERBS 4.4 23:23:23 10° NNW 23:26:08 22° NNE 23:27:04 20° NE
Meteor 1-21 4.2 23:24:50 50° SSE 23:26:11 68° E 23:31:46 10° NNE
H-2A R/B 3.9 23:26:57 19° E 23:27:44 20° ENE 23:30:49 10° NNE
COBE Rocket 4.2 23:23:40 10° NNE 23:28:12 46° E 23:28:22 46° ESE
Mayak 0.5 23:25:01 10° NE 23:27:37 21° ENE 23:27:37 21° ENE
Cosmos 1766 3.3 23:26:41 10° NNW 23:30:39 68° W 23:30:44 68° WSW
Cosmos 2084 Rocket 4.0 23:27:28 10° NNW 23:31:19 44° NE 23:31:42 42° ENE
Meteor 1-22 Rocket 4.2 23:27:00 10° NNW 23:32:18 66° W 23:33:40 47° SSW
Cosmos 2219 3.4 23:30:45 28° SW 23:33:52 70° WNW 23:39:38 10° NNE
Cosmos 1174 4.3 23:30:56 10° NNW 23:33:12 42° N 23:33:12 42° N
SAR-Lupe-4 3.8 23:34:50 67° NW 23:34:50 67° NW 23:38:01 10° NNW
Cosmos 1892 Rocket 3.5 23:34:27 67° SW 23:34:54 76° W 23:39:17 10° N
SJ 16-02 3.7 23:38:48 10° WNW 23:41:02 14° W 23:42:18 12° WSW
Cosmos 773 Rocket 3.8 23:41:37 64° SSE 23:42:14 71° ESE 23:47:22 10° NNE
CZ-4C R/B 3.3 23:38:49 10° NW 23:45:51 52° WSW 23:48:29 38° SSW
Cosmos 1758 3.5 23:42:39 10° N 23:46:29 63° ENE 23:46:29 63° ENE
Cosmos 2228 3.3 23:45:27 10° NNW 23:49:39 55° W 23:49:50 55° WSW
Cosmos 1733 3.7 23:46:17 10° N 23:49:37 53° NE 23:49:37 53° NE
COSMOS 2455 2.8 23:50:51 55° SSE 23:51:59 66° ESE 23:57:58 10° NE
Cosmos 1726 Rocket 4.4 23:49:53 10° NNW 23:53:59 39° W 23:54:26 37° WSW
CZ-2C R/B 3.2 23:48:36 10° N 23:54:07 58° WNW 23:56:18 35° SW
